FW7255 Weather Reports


time (UTC)temp
C
wind
direction
speed
KPH
gust
KPH
rain 1hr
cm
rain 24hr
cm
rain mn
cm
humidity
%
barometer
mb
20260505181051 26 148 3.2 19.3 0.00 0.00 0.00 44 1017.0
20260505180548 26 257 4.8 19.3 0.00 0.00 0.00 42 1017.0
20260505180054 27 240 3.2 16.1 0.00 0.00 0.00 44 1016.8
20260505175548 26 203 1.6 19.3 0.00 0.00 0.00 44 1016.7
20260505175048 26 88 3.2 20.9 0.00 0.00 0.00 45 1016.9
20260505174552 26 198 6.4 20.9 0.00 0.00 0.00 44 1016.8
20260505174051 26 109 4.8 12.9 0.00 0.00 0.00 44 1017.0
20260505173550 26 66 3.2 16.1 0.00 0.00 0.00 44 1016.8
20260505173057 26 296 4.8 22.5 0.00 0.00 0.00 45 1016.9
20260505172550 26 284 4.8 22.5 0.00 0.00 0.00 45 1016.9
20260505172050 26 250 4.8 19.3 0.00 0.00 0.00 44 1017.0
20260505171553 26 238 4.8 19.3 0.00 0.00 0.00 46 1016.9
20260505171048 26 130 3.2 11.3 0.00 0.00 0.00 48 1017.1
20260505170552 26 80 1.6 22.5 0.00 0.00 0.00 47 1017.1
20260505170100 25 298 4.8 22.5 0.00 0.00 0.00 47 1017.0
20260505165549 26 236 3.2 16.1 0.00 0.00 0.00 49 1017.1
20260505165048 26 272 4.8 16.1 0.00 0.00 0.00 48 1017.2
20260505164602 26 229 3.2 9.7 0.00 0.00 0.00 49 1017.3
20260505164048 26 134 1.6 12.9 0.00 0.00 0.00 50 1017.4
20260505163548 26 317 4.8 12.9 0.00 0.00 0.00 50 1017.4
20260505163100 25 144 1.6 19.3 0.00 0.00 0.00 51 1017.3
20260505162548 25 111 4.8 19.3 0.00 0.00 0.00 51 1017.4
20260505162048 25 247 3.2 14.5 0.00 0.00 0.00 51 1017.3
20260505161601 25 288 4.8 14.5 0.00 0.00 0.00 50 1017.3
20260505161052 25 256 3.2 12.9 0.00 0.00 0.00 53 1017.5
20260505160554 25 246 3.2 12.9 0.00 0.00 0.00 52 1017.5
20260505153110 23 0 3.2 16.1 0.00 0.00 0.00 56 1017.7
20260505152554 23 285 3.2 17.7 0.00 0.00 0.00 55 1017.8
20260505152048 23 247 3.2 17.7 0.00 0.00 0.00 56 1017.8
20260505151558 23 241 4.8 17.7 0.00 0.00 0.00 56 1017.8
20260505151050 23 94 3.2 12.9 0.00 0.00 0.00 58 1017.9
20260505150550 23 249 4.8 16.1 0.00 0.00 0.00 57 1017.9
20260505140551 20 219 4.8 22.5 0.00 0.00 0.00 66 1017.7
20260505124601 17 245 1.6 19.3 0.00 0.00 0.00 76 1018.0
20260505124052 16 286 1.6 19.3 0.00 0.00 0.00 76 1018.0
20260505123551 16 270 0.0 11.3 0.00 0.00 0.00 77 1018.0
20260505123059 16 0 3.2 11.3 0.00 0.00 0.00 79 1018.0
20260505122550 15 0 1.6 16.1 0.00 0.00 0.00 81 1017.9
20260505122051 15 318 4.8 16.1 0.00 0.00 0.00 82 1017.9
20260505121553 14 116 0.0 4.8 0.00 0.00 0.00 85 1017.9
20260505121051 13 0 0.0 3.2 0.00 0.00 0.00 87 1017.9
20260505120552 13 0 0.0 3.2 0.00 0.00 0.00 88 1018.0
20260505120106 13 0 0.0 1.6 0.00 0.00 0.00 90 1017.8
20260505115551 12 0 0.0 1.6 0.00 0.00 0.00 91 1017.9
20260505115048 12 0 0.0 1.6 0.00 0.00 0.00 93 1017.8
20260505114555 12 0 0.0 0.0 0.00 0.00 0.00 94 1017.8
20260505114049 11 0 0.0 0.0 0.00 0.00 0.00 95 1017.8
20260505113548 11 0 0.0 0.0 0.00 0.00 0.00 96 1017.7
20260505113109 11 0 0.0 0.0 0.00 0.00 0.00 96 1017.6
20260505112553 10 0 0.0 0.0 0.00 0.00 0.00 96 1017.6
20260505112050 10 0 0.0 0.0 0.00 0.00 0.00 96 1017.5
20260505111554 10 0 0.0 0.0 0.00 0.00 0.00 96 1017.4
20260505111050 10 0 0.0 0.0 0.00 0.00 0.00 96 1017.4
20260505110548 10 0 0.0 0.0 0.00 0.00 0.00 95 1017.4
20260505102048 10 0 0.0 0.0 0.00 0.00 0.00 93 1016.8
20260505101554 10 0 0.0 0.0 0.00 0.00 0.00 93 1016.7
20260505101050 10 0 0.0 0.0 0.00 0.00 0.00 93 1016.7
20260505100548 10 0 0.0 0.0 0.00 0.00 0.00 92 1016.7
20260505100048 10 0 0.0 0.0 0.00 0.00 0.00 92 1016.8
20260505095550 10 0 0.0 0.0 0.00 0.00 0.00 92 1016.6
20260505095049 10 0 0.0 0.0 0.00 0.00 0.00 92 1016.7
20260505094552 10 0 0.0 0.0 0.00 0.00 0.00 92 1016.5
20260505094050 10 0 0.0 0.0 0.00 0.00 0.00 92 1016.5
20260505093550 10 0 0.0 0.0 0.00 0.00 0.00 92 1016.5
20260505093102 10 0 0.0 0.0 0.00 0.00 0.00 92 1016.6
20260505092550 10 0 0.0 0.0 0.00 0.00 0.00 92 1016.5
20260505092049 10 0 0.0 0.0 0.00 0.00 0.00 91 1016.5
20260505091553 10 0 0.0 0.0 0.00 0.00 0.00 91 1016.5
20260505091048 11 0 0.0 0.0 0.00 0.00 0.00 90 1016.4
20260505090548 11 0 0.0 0.0 0.00 0.00 0.00 90 1016.4
20260505090053 11 0 0.0 0.0 0.00 0.00 0.00 90 1016.3
20260505085549 11 0 0.0 0.0 0.00 0.00 0.00 89 1016.4
20260505085052 11 0 0.0 0.0 0.00 0.00 0.00 89 1016.4
20260505084553 11 0 0.0 0.0 0.00 0.00 0.00 90 1016.3
20260505084054 11 0 0.0 0.0 0.00 0.00 0.00 89 1016.3
20260505083553 11 0 0.0 0.0 0.00 0.00 0.00 89 1016.4
20260505083055 11 0 0.0 0.0 0.00 0.00 0.00 88 1016.4
20260505082549 11 0 0.0 0.0 0.00 0.00 0.00 88 1016.3
20260505082049 11 0 0.0 0.0 0.00 0.00 0.00 88 1016.3
20260505081558 11 0 0.0 0.0 0.00 0.00 0.00 88 1016.2
20260505081049 11 0 0.0 0.0 0.00 0.00 0.00 87 1016.2
20260505080548 12 0 0.0 0.0 0.00 0.00 0.00 86 1016.2
20260505080054 12 0 0.0 0.0 0.00 0.00 0.00 86 1016.2
20260505075548 12 0 0.0 0.0 0.00 0.00 0.00 85 1016.2
20260505075048 12 0 0.0 0.0 0.00 0.00 0.00 85 1016.2
20260505074551 12 0 0.0 0.0 0.00 0.00 0.00 85 1016.2
20260505074049 12 0 0.0 0.0 0.00 0.00 0.00 84 1016.1
20260505073550 12 0 0.0 0.0 0.00 0.00 0.00 84 1016.3
20260505073050 12 0 0.0 0.0 0.00 0.00 0.00 84 1016.1
20260505072548 12 0 0.0 0.0 0.00 0.00 0.00 83 1016.0
20260505072051 12 0 0.0 0.0 0.00 0.00 0.00 83 1016.1
20260505071552 13 0 0.0 0.0 0.00 0.00 0.00 82 1016.2
20260505071050 13 0 0.0 0.0 0.00 0.00 0.00 81 1016.0
20260505070550 13 0 0.0 0.0 0.00 0.00 0.00 81 1016.1
20260505070053 13 0 0.0 0.0 0.00 0.00 0.00 81 1016.1
20260505065550 13 0 0.0 0.0 0.00 0.00 0.00 80 1016.1
20260505065049 13 0 0.0 0.0 0.00 0.00 0.00 80 1016.1
20260505064559 13 0 0.0 0.0 0.00 0.00 0.00 79 1016.1
20260505064048 14 0 0.0 0.0 0.00 0.00 0.00 79 1016.1
20260505063548 14 0 0.0 0.0 0.00 0.00 0.00 78 1015.9
20260505063055 14 0 0.0 0.0 0.00 0.00 0.00 78 1016.0
20260505062549 14 0 0.0 0.0 0.00 0.00 0.00 77 1015.9
20260505062049 14 0 0.0 0.0 0.00 0.00 0.00 77 1016.0
20260505061552 15 0 0.0 0.0 0.00 0.00 0.00 76 1016.0
20260505061052 15 0 0.0 3.2 0.00 0.00 0.00 76 1016.0
20260505060548 15 0 0.0 3.2 0.00 0.00 0.00 75 1015.9
20260505060100 15 0 0.0 1.6 0.00 0.00 0.00 75 1016.0
20260505055551 15 0 0.0 1.6 0.00 0.00 0.00 75 1016.0
20260505055053 15 0 0.0 1.6 0.00 0.00 0.00 75 1015.9
20260505054554 15 0 0.0 1.6 0.00 0.00 0.00 75 1015.9
20260505054049 15 0 0.0 1.6 0.00 0.00 0.00 74 1016.0
20260505053548 15 0 0.0 0.0 0.00 0.00 0.00 74 1016.1
20260505053115 15 0 0.0 1.6 0.00 0.00 0.00 74 1016.2
20260505052548 15 0 0.0 1.6 0.00 0.00 0.00 73 1016.2
20260505052049 16 0 0.0 1.6 0.00 0.00 0.00 73 1016.2
20260505051555 16 0 0.0 3.2 0.00 0.00 0.00 72 1016.1
20260505051049 16 291 0.0 3.2 0.00 0.00 0.00 72 1016.3
20260505050549 16 279 0.0 3.2 0.00 0.00 0.00 72 1016.2
20260505050104 16 0 0.0 3.2 0.00 0.00 0.00 71 1016.4
20260505041553 17 0 0.0 8.0 0.00 0.00 0.00 68 1016.1
20260505041051 17 254 1.6 8.0 0.00 0.00 0.00 68 1016.1
20260505040550 17 229 0.0 6.4 0.00 0.00 0.00 68 1016.0
20260505040053 17 256 0.0 9.7 0.00 0.00 0.00 67 1016.1
20260505035551 17 17 1.6 9.7 0.00 0.00 0.00 67 1016.0
20260505035047 17 229 1.6 6.4 0.00 0.00 0.00 67 1016.1
20260505034613 17 75 0.0 11.3 0.00 0.00 0.00 66 1016.1
20260505034048 17 0 1.6 11.3 0.00 0.00 0.00 66 1016.0
20260505033548 17 0 1.6 6.4 0.00 0.00 0.00 66 1016.2
20260505033057 17 195 0.0 12.9 0.00 0.00 0.00 66 1016.0
20260505032547 18 306 0.0 12.9 0.00 0.00 0.00 65 1016.0
20260505032047 18 239 1.6 6.4 0.00 0.00 0.00 65 1016.1
20260505031555 18 0 0.0 6.4 0.00 0.00 0.00 65 1016.1
20260505031048 18 122 0.0 11.3 0.00 0.00 0.00 65 1016.1
20260505030548 18 263 1.6 22.5 0.00 0.00 0.00 65 1015.9
20260505030053 18 279 0.0 22.5 0.00 0.00 0.00 64 1016.0
20260505025549 18 232 1.6 6.4 0.00 0.00 0.00 64 1016.0
20260505025048 18 158 0.0 6.4 0.00 0.00 0.00 64 1016.1
20260505024553 18 290 1.6 12.9 0.00 0.00 0.00 64 1015.9
20260505024048 18 272 1.6 12.9 0.00 0.00 0.00 64 1015.9
20260505023549 18 239 1.6 9.7 0.00 0.00 0.00 64 1015.9
20260505023053 19 245 1.6 9.7 0.00 0.00 0.00 63 1015.8
20260505022551 19 296 1.6 9.7 0.00 0.00 0.00 63 1015.8
20260505022048 19 271 1.6 4.8 0.00 0.00 0.00 62 1015.7
20260505021552 19 319 0.0 17.7 0.00 0.00 0.00 61 1015.7
20260505021049 19 157 1.6 17.7 0.00 0.00 0.00 60 1015.6
20260505020548 19 209 0.0 17.7 0.00 0.00 0.00 58 1015.5
20260505020057 20 290 1.6 17.7 0.00 0.00 0.00 57 1015.5
20260505015550 20 246 0.0 6.4 0.00 0.00 0.00 55 1015.4
20260505015048 20 226 0.0 12.9 0.00 0.00 0.00 53 1015.3
20260505014556 20 0 1.6 12.9 0.00 0.00 0.00 52 1015.4
20260505014051 20 94 3.2 12.9 0.00 0.00 0.00 52 1015.3
20260505013551 20 267 1.6 12.9 0.00 0.00 0.00 50 1015.3
20260505013053 20 266 1.6 3.2 0.00 0.00 0.00 49 1015.1
20260505012552 20 0 0.0 1.6 0.00 0.00 0.00 49 1015.0
20260505012052 20 0 0.0 1.6 0.00 0.00 0.00 48 1014.9
20260505011610 20 0 0.0 1.6 0.00 0.00 0.00 47 1015.0
20260505011051 20 0 0.0 1.6 0.00 0.00 0.00 47 1014.9
20260505010551 20 281 0.0 3.2 0.00 0.00 0.00 46 1014.7
20260505010056 21 0 0.0 3.2 0.00 0.00 0.00 45 1014.8
20260505005552 21 0 0.0 3.2 0.00 0.00 0.00 45 1014.5
20260505005052 21 0 0.0 4.8 0.00 0.00 0.00 45 1014.5
20260505004559 21 0 0.0 6.4 0.00 0.00 0.00 44 1014.5
20260505004052 21 0 0.0 6.4 0.00 0.00 0.00 44 1014.5
20260505003551 21 236 0.0 6.4 0.00 0.00 0.00 44 1014.3
20260505003056 21 242 0.0 0.0 0.00 0.00 0.00 44 1014.4
20260505002552 21 0 0.0 3.2 0.00 0.00 0.00 43 1014.2
20260505002050 21 0 0.0 3.2 0.00 0.00 0.00 42 1014.2
20260505001620 22 0 0.0 1.6 0.00 0.00 0.00 42 1014.2
20260505001052 22 0 0.0 1.6 0.00 0.00 0.00 41 1014.2
20260505000551 22 0 0.0 4.8 0.00 0.00 0.00 40 1014.2
20260505000108 22 0 0.0 4.8 0.00 0.00 0.00 40 1014.0
20260504235551 23 254 0.0 8.0 0.00 0.00 0.00 39 1014.1
20260504235056 23 0 0.0 8.0 0.00 0.00 0.00 39 1014.0
20260504234558 23 252 0.0 8.0 0.00 0.00 0.00 38 1013.9
20260504234052 23 0 0.0 6.4 0.00 0.00 0.00 38 1013.8
20260504233551 23 0 0.0 6.4 0.00 0.00 0.00 37 1013.8
20260504233110 24 261 0.0 14.5 0.00 0.00 0.00 36 1013.8
20260504232552 24 0 1.6 14.5 0.00 0.00 0.00 36 1013.8
20260504232054 25 246 1.6 14.5 0.00 0.00 0.00 35 1013.6
20260504231556 25 0 0.0 11.3 0.00 0.00 0.00 34 1013.5
20260504231048 25 136 3.2 11.3 0.00 0.00 0.00 33 1013.6
20260504230553 26 267 0.0 6.4 0.00 0.00 0.00 31 1013.7
20260504230054 26 0 1.6 6.4 0.00 0.00 0.00 31 1013.6
20260504225556 26 0 0.0 11.3 0.00 0.00 0.00 30 1013.5
20260504225051 26 241 3.2 11.3 0.00 0.00 0.00 29 1013.6
20260504224556 27 158 0.0 8.0 0.00 0.00 0.00 30 1013.6
20260504224051 27 261 0.0 8.0 0.00 0.00 0.00 29 1013.6
20260504223550 27 257 0.0 11.3 0.00 0.00 0.00 29 1013.6
20260504223055 26 294 0.0 11.3 0.00 0.00 0.00 29 1013.7
20260504222553 27 62 0.0 11.3 0.00 0.00 0.00 28 1013.6
20260504222050 26 0 3.2 11.3 0.00 0.00 0.00 29 1013.6
20260504221555 26 311 3.2 11.3 0.00 0.00 0.00 28 1013.6
20260504221053 27 254 1.6 12.9 0.00 0.00 0.00 27 1013.6
20260504220551 27 270 3.2 12.9 0.00 0.00 0.00 28 1013.6
20260504220053 27 0 0.0 12.9 0.00 0.00 0.00 28 1013.6
20260504215551 26 262 6.4 12.9 0.00 0.00 0.00 28 1013.6
20260504215048 27 242 4.8 11.3 0.00 0.00 0.00 28 1013.6
20260504214557 27 0 3.2 16.1 0.00 0.00 0.00 28 1013.6
20260504214050 27 0 4.8 17.7 0.00 0.00 0.00 29 1013.6
20260504213549 27 0 4.8 17.7 0.00 0.00 0.00 27 1013.6
20260504213058 27 101 1.6 17.7 0.00 0.00 0.00 27 1013.6
20260504212549 27 0 0.0 14.5 0.00 0.00 0.00 30 1013.6
20260504212049 26 246 3.2 14.5 0.00 0.00 0.00 29 1013.7
20260504211557 26 269 3.2 17.7 0.00 0.00 0.00 29 1013.9
20260504211048 27 0 4.8 17.7 0.00 0.00 0.00 29 1013.8
20260504210553 27 0 3.2 19.3 0.00 0.00 0.00 29 1013.7
20260504210055 26 235 4.8 19.3 0.00 0.00 0.00 30 1013.6
20260504205551 27 0 4.8 12.9 0.00 0.00 0.00 29 1013.8
20260504205052 27 250 3.2 16.1 0.00 0.00 0.00 30 1013.8
20260504204558 27 0 0.0 16.1 0.00 0.00 0.00 30 1013.8
20260504204050 27 230 1.6 16.1 0.00 0.00 0.00 30 1013.9
20260504203550 27 0 4.8 16.1 0.00 0.00 0.00 31 1014.0
20260504203058 27 253 3.2 11.3 0.00 0.00 0.00 29 1013.8
20260504202550 27 293 1.6 11.3 0.00 0.00 0.00 30 1014.0
20260504202051 27 256 1.6 16.1 0.00 0.00 0.00 30 1014.0
20260504201552 27 115 1.6 17.7 0.00 0.00 0.00 31 1014.2
20260504201048 27 197 1.6 20.9 0.00 0.00 0.00 30 1014.2
20260504200550 26 158 0.0 20.9 0.00 0.00 0.00 32 1014.2
20260504195550 26 257 4.8 16.1 0.00 0.00 0.00 32 1014.2
20260504195050 26 244 6.4 20.9 0.00 0.00 0.00 31 1014.4
20260504194601 26 304 1.6 20.9 0.00 0.00 0.00 32 1014.4
20260504194051 26 288 8.0 20.9 0.00 0.00 0.00 31 1014.6
20260504193551 26 255 4.8 20.9 0.00 0.00 0.00 30 1014.7
20260504193057 26 229 4.8 14.5 0.00 0.00 0.00 30 1014.8
20260504192546 26 265 1.6 17.7 0.00 0.00 0.00 31 1014.5
20260504192048 25 151 3.2 17.7 0.00 0.00 0.00 32 1014.8
20260504191608 25 268 6.4 19.3 0.00 0.00 0.00 33 1014.8
20260504191048 25 113 6.4 19.3 0.00 0.00 0.00 32 1015.0
20260504190549 26 227 4.8 17.7 0.00 0.00 0.00 33 1015.0
20260504190053 26 227 3.2 14.5 0.00 0.00 0.00 32 1015.1
20260504185548 25 214 1.6 9.7 0.00 0.00 0.00 33 1015.0
20260504185047 25 324 1.6 17.7 0.00 0.00 0.00 33 1015.4
20260504184550 25 240 8.0 17.7 0.00 0.00 0.00 32 1015.5
20260504184048 25 273 3.2 11.3 0.00 0.00 0.00 33 1015.5
20260504183547 25 217 4.8 11.3 0.00 0.00 0.00 33 1015.4
20260504183056 25 311 3.2 11.3 0.00 0.00 0.00 33 1015.4
20260504182548 25 231 3.2 11.3 0.00 0.00 0.00 34 1015.5
20260504182047 24 88 3.2 17.7 0.00 0.00 0.00 35 1015.6
20260504181557 24 13 4.8 17.7 0.00 0.00 0.00 34 1015.7